User: anonymous   Login
Location: Hepcat Sky Observatory
(29.9800°N, 95.6500°W)
Time: 22:41:26
(UTC-05:00)
Language:

Cosmos 2151 Rocket - Orbit

View from above orbital plane
View from above orbital plane
View from above satellite
View from above satellite

Ground track
Ground track

The orbit data is extracted from the following two-line orbital elements,

1 21423U 91042B   14298.73808139  .00000696  00000-0  90319-4 0  8425
2 21423 082.4922 143.4581 0018376 167.9093 238.6847 14.79282548259832
Epoch (UTC): 25 October 2014 17:42:50
Eccentricity: 0.0018376
inclination: 82.4922°
perigee height: 619 km
apogee height: 644 km
right ascension of ascending node: 143.4581°
argument of perigee: 167.9093°
revolutions per day: 14.79282548
mean anomaly at epoch: 238.6847°
orbit number at epoch: 25983

The dashed part of the orbit path shows where the satellite is in the earth's shadow,  

DLR